Weather reports worldwide

Advertisment
Tucson/Int., United States of America (72274): temperature & dewpoint: 07.12.2019 21:00:00 - 13.12.2019 21:00:00 (MST)Tucson/Int., United States of America (72274): wind speed & gusts: 07.12.2019 21:00:00 - 13.12.2019 21:00:00 (MST)Tucson/Int., United States of America (72274): wind direction: 07.12.2019 21:00:00 - 13.12.2019 21:00:00 (MST)Tucson/Int., United States of America (72274): reduced air pressure: 07.12.2019 21:00:00 - 13.12.2019 21:00:00 (MST)Tucson/Int., United States of America (72274): visibility: 07.12.2019 21:00:00 - 13.12.2019 21:00:00 (MST)Tucson/Int., United States of America (72274): precipitation: 07.12.2019 21:00:00 - 13.12.2019 21:00:00 (MST)
Date & Time tt [°C] td [°C] ff [km/h] ff [kn] fx [km/h] fx [kn] dd ppp [hPa] vv [km] rr [mm]
13.12.2019 21:00:00 12,2 5,6 11 6 - - S 1016,7 16 -
13.12.2019 20:00:00 16,1 4,4 0 0 - - N 1016,5 16 -
13.12.2019 19:00:00 15,6 4,4 0 0 - - N 1016,8 16 -
13.12.2019 18:00:00 17,8 5,0 8 4 - - N 1016,3 16 -
13.12.2019 17:00:00 21,1 1,1 13 7 - - NNW 1015,5 16 0,0
13.12.2019 16:00:00 23,3 -5,0 0 0 - - N 1015,3 16 -
13.12.2019 15:00:00 23,3 -3,9 5 3 - - NNW 1015,6 16 -
13.12.2019 14:00:00 22,8 -2,8 0 0 - - N 1016,5 16 -
13.12.2019 13:00:00 20,6 -1,7 8 4 - - - 1017,2 16 -
13.12.2019 12:00:00 18,3 0,0 11 6 - - SE 1019,1 16 -
13.12.2019 11:00:00 16,1 1,1 11 6 - - SSE 1020,7 16 0,0
13.12.2019 10:00:00 12,8 1,7 13 7 - - SSE 1021,7 16 -
13.12.2019 09:00:00 9,4 0,6 9 5 - - SSE 1022,1 16 -
13.12.2019 08:00:00 6,1 0,6 15 8 - - SE 1022,4 16 -
13.12.2019 07:00:00 6,1 0,6 8 4 - - ESE 1022,0 16 -
13.12.2019 06:00:00 5,6 1,1 15 8 - - SSE 1020,8 16 -
13.12.2019 05:00:00 6,1 1,1 8 4 - - SSE 1020,9 16 0,0
13.12.2019 04:00:00 6,7 1,7 8 4 - - SSE 1020,8 16 -
13.12.2019 03:00:00 7,2 2,2 9 5 - - SE 1020,8 16 -
13.12.2019 02:00:00 6,7 2,8 11 6 - - SSE 1020,7 16 -
13.12.2019 01:00:00 7,2 3,3 13 7 - - SSE 1020,9 16 -
13.12.2019 00:00:00 7,8 3,9 11 6 - - SE 1021,8 16 -
12.12.2019 23:00:00 8,3 5,0 9 5 - - SSE 1022,0 16 0,0
12.12.2019 22:00:00 9,4 5,0 5 3 - - SE 1022,2 16 -
12.12.2019 21:00:00 10,6 5,0 0 0 - - N 1022,5 16 -
12.12.2019 20:00:00 11,1 4,4 9 5 - - SW 1022,5 16 -
12.12.2019 19:00:00 13,9 4,4 0 0 - - N 1022,3 16 -
12.12.2019 18:00:00 15,0 3,9 0 0 - - N 1021,7 16 -
12.12.2019 17:00:00 - - 0 0 - - SW - - -
12.12.2019 16:00:00 - - - - - - - - - -
12.12.2019 15:00:00 - - - - - - - - - -
12.12.2019 14:00:00 - - - - - - - - - -
12.12.2019 13:00:00 - - - - - - - - - -
12.12.2019 12:00:00 - - - - - - - - - -
12.12.2019 11:00:00 - - - - - - - - - -
12.12.2019 10:00:00 11,1 1,7 11 6 - - SSE 1023,8 16 -
12.12.2019 09:00:00 8,9 1,7 13 7 - - SSE 1023,8 16 -
12.12.2019 08:00:00 6,1 1,7 15 8 - - SSE 1023,4 16 -
12.12.2019 07:00:00 5,0 1,1 13 7 - - SSE 1022,4 16 -
12.12.2019 06:00:00 5,6 1,7 15 8 - - SE 1022,2 16 -
12.12.2019 05:00:00 5,0 1,7 11 6 - - SE 1021,5 16 0,0
12.12.2019 04:00:00 5,6 2,2 11 6 - - SE 1021,3 16 -
12.12.2019 03:00:00 5,6 2,8 13 7 - - SSE 1021,4 16 -
12.12.2019 02:00:00 6,1 2,8 13 7 - - SSE 1021,3 16 -
12.12.2019 01:00:00 6,7 3,3 11 6 - - SSE 1021,3 16 -
12.12.2019 00:00:00 7,2 3,9 15 8 - - SSE 1021,3 16 -
11.12.2019 23:00:00 7,2 4,4 9 5 - - S 1021,1 16 0,0
11.12.2019 22:00:00 9,4 5,0 5 3 - - S 1020,6 16 -
11.12.2019 21:00:00 11,1 5,0 0 0 - - N 1020,4 16 -
11.12.2019 20:00:00 12,8 5,0 0 0 - - N 1019,5 16 -
11.12.2019 19:00:00 13,9 5,0 0 0 - - N 1019,2 16 -
11.12.2019 18:00:00 14,4 3,3 8 4 - - W 1018,9 16 -
11.12.2019 17:00:00 18,3 1,1 0 0 - - N 1017,8 16 0,0
11.12.2019 16:00:00 18,9 0,0 0 0 - - N 1017,9 16 -
11.12.2019 15:00:00 18,3 -0,6 0 0 - - N 1018,4 16 -
11.12.2019 14:00:00 17,8 2,2 0 0 - - N 1018,5 16 -
11.12.2019 13:00:00 15,6 3,9 5 3 - - SW 1018,9 16 -
11.12.2019 12:00:00 15,0 3,9 8 4 - - - 1020,4 16 -
11.12.2019 11:00:00 15,0 2,8 8 4 - - SSE 1021,2 16 0,0
11.12.2019 10:00:00 12,2 3,9 13 7 - - SSE 1021,5 16 -
11.12.2019 09:00:00 9,4 3,9 11 6 - - S 1021,3 16 -
11.12.2019 08:00:00 8,9 3,3 13 7 - - SE 1021,1 16 -
11.12.2019 07:00:00 8,9 3,9 11 6 52 28 SSW 1020,8 16 -
11.12.2019 06:00:00 8,9 4,4 21 11 - - SSE 1020,0 16 -
11.12.2019 05:00:00 9,4 4,4 11 6 - - ESE 1019,6 16 0,0
11.12.2019 04:00:00 8,9 5,6 18 10 - - SSE 1019,8 16 -
11.12.2019 03:00:00 7,2 5,0 0 0 - - N 1020,6 16 -
11.12.2019 02:00:00 8,3 5,0 16 9 - - SSE 1020,6 16 -
11.12.2019 01:00:00 11,7 5,0 21 11 - - E - 16 -
11.12.2019 00:00:00 9,4 6,1 0 0 - - N - 16 -
10.12.2019 23:00:00 10,0 6,7 8 4 - - ESE 1022,4 16 0,0
10.12.2019 22:00:00 10,0 7,2 5 3 - - S 1022,8 16 -
10.12.2019 21:00:00 10,6 7,2 9 5 - - WSW 1022,5 16 -
10.12.2019 20:00:00 12,2 7,8 0 0 - - N 1022,3 16 -
10.12.2019 19:00:00 13,3 7,2 9 5 - - NNW 1021,6 16 -
10.12.2019 18:00:00 15,0 6,1 8 4 - - NNW 1020,6 16 -
10.12.2019 17:00:00 17,8 4,4 8 4 - - NNE 1019,9 16 0,0
10.12.2019 16:00:00 18,9 5,0 9 5 - - N 1019,9 16 -
10.12.2019 15:00:00 18,9 4,4 9 5 - - NNE 1020,1 16 -
10.12.2019 14:00:00 17,8 5,0 11 6 - - - 1020,6 16 -
10.12.2019 13:00:00 - - - - - - - - - -
10.12.2019 12:00:00 17,0 6,0 9 5 - - ESE - 16 -
10.12.2019 11:00:00 14,4 6,1 11 6 - - E 1022,5 16 0,0
10.12.2019 10:00:00 11,7 7,2 8 4 - - SSE 1022,9 16 -
10.12.2019 09:00:00 10,0 7,8 5 3 - - SE 1022,6 13 -
10.12.2019 08:00:00 9,4 7,2 8 4 - - E 1022,2 6 -
10.12.2019 07:00:00 9,4 7,8 0 0 - - N 1021,2 11 -
10.12.2019 06:00:00 9,4 7,8 0 0 - - N 1020,4 10 -
10.12.2019 05:00:00 9,4 8,3 0 0 - - N 1019,4 3,2 0,0
10.12.2019 04:00:00 9,4 7,8 8 4 - - ENE 1019,5 3,2 -
10.12.2019 03:00:00 8,9 7,8 5 3 - - NW 1019,1 3,2 -
10.12.2019 02:00:00 8,9 7,8 5 3 - - WNW 1018,6 16 -
10.12.2019 01:00:00 8,9 7,2 0 0 - - N 1018,2 16 -
10.12.2019 00:00:00 8,9 7,8 5 3 - - WSW 1018,1 15 -
09.12.2019 23:00:00 9,4 7,8 8 4 - - SW 1017,3 16 0,0
09.12.2019 22:00:00 9,4 7,8 5 3 - - W 1016,6 16 -
09.12.2019 21:00:00 10,0 8,3 0 0 - - N 1016,1 16 -
09.12.2019 20:00:00 10,6 8,9 0 0 - - N 1015,7 16 -
09.12.2019 19:00:00 10,0 8,3 8 4 - - W 1014,9 16 -
09.12.2019 18:00:00 11,1 8,3 8 4 - - W 1014,0 16 -
09.12.2019 17:00:00 12,2 8,3 5 3 - - SSW 1012,9 16 -
09.12.2019 16:00:00 13,3 8,9 0 0 - - N 1012,1 16 -
09.12.2019 15:00:00 12,8 9,4 5 3 - - - 1011,8 16 -
09.12.2019 14:00:00 12,2 8,3 0 0 - - N 1011,9 16 0,3
09.12.2019 13:00:00 10,6 8,9 5 3 - - NW 1012,5 4,8 1,5
09.12.2019 12:00:00 10,6 8,9 21 11 - - NNW 1012,3 4,8 1,8
09.12.2019 11:00:00 13,9 10,6 11 6 - - NW 1011,9 16 -
09.12.2019 10:00:00 13,9 10,0 5 3 - - ESE 1011,7 16 -
09.12.2019 09:00:00 12,2 9,4 9 5 - - SSE 1012,1 16 -
09.12.2019 08:00:00 11,7 8,9 0 0 - - N 1012,2 16 -
09.12.2019 07:00:00 11,7 9,4 5 3 - - ESE 1012,1 16 2,3
09.12.2019 06:00:00 11,7 9,4 15 8 - - NW 1011,3 8 0,5
09.12.2019 05:00:00 11,7 9,4 16 9 - - ESE 1011,4 16 -
09.12.2019 04:00:00 11,7 8,9 11 6 48 26 N 1011,6 16 3,0
09.12.2019 03:00:00 11,7 9,4 9 5 48 26 SSW 1013,8 8 2,3
09.12.2019 02:00:00 12,2 10,0 11 6 57 31 NNE 1012,7 13 0,5
09.12.2019 01:00:00 13,9 9,4 11 6 - - N 1012,1 16 -
09.12.2019 00:00:00 15,0 10,6 0 0 - - N 1012,2 16 -
08.12.2019 23:00:00 15,0 8,9 0 0 - - N 1012,7 16 0,0
08.12.2019 22:00:00 15,0 8,9 0 0 - - N 1013,8 16 -
08.12.2019 21:00:00 15,6 8,9 0 0 - - N 1014,0 16 -
08.12.2019 20:00:00 15,6 9,4 0 0 - - N 1013,8 16 -
08.12.2019 19:00:00 16,7 9,4 5 3 - - NW 1014,0 16 -
08.12.2019 18:00:00 17,2 9,4 0 0 - - N 1013,5 16 -
08.12.2019 17:00:00 18,3 9,4 0 0 - - N 1013,9 16 0,0
08.12.2019 16:00:00 18,3 9,4 8 4 - - NW 1013,6 16 -
08.12.2019 15:00:00 18,9 9,4 13 7 - - S 1013,7 16 -
08.12.2019 14:00:00 18,3 8,9 9 5 - - SSE 1014,2 16 -
08.12.2019 13:00:00 17,8 7,2 11 6 - - SE 1015,3 16 -
08.12.2019 12:00:00 16,7 8,9 0 0 - - N 1016,6 16 -
08.12.2019 11:00:00 15,0 11,1 11 6 - - SSE 1017,3 16 -
08.12.2019 10:00:00 15,0 10,0 5 3 - - - 1017,6 16 0,0
08.12.2019 09:00:00 13,9 10,0 0 0 - - N 1017,4 15 0,0
08.12.2019 08:00:00 13,3 9,4 0 0 - - N 1016,9 16 -
08.12.2019 07:00:00 13,3 8,9 0 0 - - N 1016,5 16 -
08.12.2019 06:00:00 13,9 8,9 5 3 - - SE 1016,0 16 -
08.12.2019 05:00:00 13,9 8,9 5 3 - - SSE 1016,1 16 0,0
08.12.2019 04:00:00 13,9 10,0 9 5 - - SE 1016,1 16 -
08.12.2019 03:00:00 13,3 10,0 8 4 - - SE 1016,6 16 -
08.12.2019 02:00:00 14,4 9,4 0 0 - - N 1016,9 16 -
08.12.2019 01:00:00 13,9 9,4 8 4 - - WSW 1017,6 16 -
08.12.2019 00:00:00 14,4 10,0 11 6 - - SW 1018,4 16 -
07.12.2019 23:00:00 15,0 9,4 8 4 - - WSW 1018,9 16 0,0
07.12.2019 22:00:00 15,6 9,4 9 5 - - W 1018,8 16 -
07.12.2019 21:00:00 15,6 9,4 8 4 - - WSW 1018,5 16 -

tt = temperature
td = dewpoint
ff = wind speed
fx = gusts
dd = wind direction
ppp = reduced air pressure
vv = visibility
rr = precipitation

Next stations